Wind_Speed
39 40 41 42 42 42 42 42 41 42 41 41 42 41 41 41 41 41 41 41 40 39 38 37 35 33 32 30 28 26 25 23 22 21 20 19 19 19
40 40 41 43 44 44 44 43 43 43 43 42 43 43 42 42 43 43 42 42 41 40 39 38 36 35 33 31 30 28 26 25 24 22 20 19 18 18
41 42 43 44 44 44 45 46 46 45 45 45 45 44 45 45 45 44 43 43 43 41 40 39 38 36 34 33 32 30 28 26 25 23 21 19 18 17
42 43 44 45 46 46 46 47 48 48 47 46 47 46 46 46 46 46 45 44 43 43 42 41 40 38 36 35 33 31 29 27 26 24 22 20 19 18
42 43 44 45 47 48 48 48 49 50 50 48 48 48 48 48 47 47 47 46 46 45 44 43 41 40 38 37 35 33 31 30 28 25 24 22 20 19
40 41 43 45 46 48 50 50 50 51 51 50 50 49 49 49 49 49 49 48 47 47 46 45 44 43 41 39 37 35 33 32 29 27 25 24 22 20
38 40 42 44 45 47 49 51 52 52 52 53 52 52 52 51 51 51 50 49 49 49 48 46 45 44 43 41 39 37 35 34 31 29 27 25 24 22
37 39 41 43 44 46 48 50 53 54 54 54 53 54 54 53 52 52 51 51 50 49 49 49 48 46 45 44 42 40 37 36 33 31 29 27 25 24
35 37 39 41 43 45 48 50 52 54 56 56 55 56 57 56 55 53 52 51 50 50 51 51 50 49 47 46 45 42 40 38 36 34 31 29 27 25
32 34 36 39 42 45 47 50 52 54 56 57 56 57 58 58 57 55 54 53 52 52 52 52 51 50 49 48 46 44 42 41 38 36 33 31 29 27
30 30 33 36 39 43 46 48 50 53 56 58 57 58 59 60 59 57 56 54 53 54 53 52 52 52 51 50 48 46 44 42 40 38 36 34 32 30
29 30 31 34 37 40 43 46 49 51 54 57 58 58 59 60 61 60 58 56 54 54 54 53 52 53 52 52 51 49 46 44 42 40 38 35 33 31
27 28 30 31 34 37 40 43 47 49 51 55 57 59 60 60 61 61 60 58 56 54 54 54 53 54 54 52 51 50 48 46 44 41 39 37 35 33
25 26 27 28 29 33 36 40 43 46 48 52 54 57 58 59 60 62 61 58 57 55 54 54 53 53 53 52 50 50 49 47 45 42 40 38 36 34
23 23 23 24 26 28 32 36 40 42 44 47 51 53 56 57 58 60 61 59 57 55 52 52 53 53 54 53 51 49 48 48 46 43 41 39 37 35
20 19 19 20 21 24 28 32 36 39 41 44 47 50 52 55 57 58 58 58 57 56 54 52 52 53 54 53 51 49 48 48 46 44 42 40 38 36
17 16 15 16 18 21 24 27 31 36 38 41 44 46 48 51 53 55 56 57 56 56 55 53 52 52 53 52 51 50 49 48 47 46 43 41 39 37
14 13 12 13 15 18 21 24 27 31 35 37 41 44 45 46 48 51 53 54 54 55 56 54 52 52 51 50 50 50 50 49 48 46 44 42 40 39
12 11 10 10 11 14 17 21 24 28 31 33 36 40 42 43 44 46 49 51 52 53 54 55 54 53 52 51 51 50 50 49 48 46 44 43 41 40
11 9 8 8 9 11 14 18 22 25 27 30 34 36 39 41 42 43 45 47 50 51 51 53 53 53 51 50 49 49 50 49 47 46 44 43 42 40
11 8 6 5 7 9 12 16 20 23 25 27 30 34 36 38 40 41 43 45 47 49 50 50 51 52 51 51 50 49 48 47 47 46 45 44 43 41
10 7 5 4 5 8 11 14 17 20 23 25 28 31 34 35 37 39 40 42 44 46 47 49 49 50 50 50 50 49 48 47 47 46 46 45 43 41
9 7 5 4 4 6 9 12 16 18 21 23 25 29 31 33 34 36 38 40 42 44 46 46 46 47 47 48 49 48 48 47 46 45 44 44 43 42
Wind_Direction
260 256 253 249 248 246 243 240 237 236 233 230 227 224 223 221 221 221 220 218 219 220 220 219 219 219 220 220 221 221 221 222 224 227 229 232 235 238
260 257 253 249 247 245 242 239 237 234 231 229 228 226 224 222 221 220 219 217 218 218 218 218 218 219 220 219 220 220 220 222 224 225 228 231 234 238
261 258 254 250 247 244 240 238 235 233 230 228 227 226 225 223 221 219 218 218 218 217 218 218 217 218 219 219 219 220 220 221 222 223 227 230 233 237
262 258 254 250 246 243 240 237 234 232 230 226 226 225 225 223 221 220 219 218 217 217 217 218 217 218 217 218 218 219 219 220 221 223 226 229 231 236
263 259 254 249 246 242 239 236 234 231 228 226 225 224 225 224 222 220 219 218 217 217 217 218 218 217 216 217 218 219 219 220 221 224 226 228 231 235
265 260 255 250 246 242 239 236 233 230 227 225 223 222 223 224 222 221 219 218 218 218 218 219 218 217 216 217 218 219 220 221 222 224 226 229 232 236
265 260 255 250 246 242 238 236 232 229 227 223 222 221 220 221 222 221 219 219 218 218 218 219 218 217 217 217 218 219 220 221 222 224 226 229 233 236
265 260 255 250 245 241 238 235 233 230 227 224 222 221 220 220 220 220 219 219 218 218 218 218 217 217 217 218 218 219 220 221 223 224 227 230 233 236
268 262 256 250 245 241 238 235 232 230 228 225 222 221 219 218 219 219 219 219 219 218 218 218 218 218 218 218 219 220 221 222 224 226 228 230 233 236
272 265 258 252 246 241 238 235 232 230 228 225 223 221 219 218 218 219 218 218 218 218 217 218 218 218 218 218 219 220 222 223 224 226 228 230 233 237
273 267 262 255 248 243 239 235 232 229 227 225 222 220 219 218 217 217 217 216 217 219 219 219 218 218 219 219 219 220 221 223 224 226 228 231 233 237
276 270 265 259 252 245 240 235 232 229 226 225 223 221 219 219 219 218 218 218 217 217 217 218 218 218 219 220 220 221 222 223 224 226 228 231 234 237
279 273 268 261 252 244 238 234 231 228 226 224 223 222 220 219 219 218 218 219 219 218 217 217 217 218 219 219 219 221 222 223 224 226 228 231 234 237
284 277 270 261 252 243 236 232 229 226 225 223 222 222 221 221 220 220 219 218 220 220 220 219 218 218 218 218 219 220 222 223 224 226 228 231 234 237
288 281 271 260 251 242 236 231 227 225 224 223 221 221 222 222 221 220 219 218 218 219 218 220 221 220 219 218 219 220 221 223 224 226 228 230 233 236
293 285 273 259 249 241 235 229 227 225 223 222 221 220 221 222 221 220 219 218 218 218 218 219 220 220 221 220 220 220 221 223 224 225 228 230 233 236
298 289 277 260 247 239 232 228 225 223 221 221 220 219 219 221 222 222 221 219 218 217 219 220 220 219 220 220 220 221 223 224 226 226 228 231 233 236
305 293 283 266 246 235 229 225 222 219 219 220 219 219 218 219 220 222 222 221 219 219 219 220 219 219 219 219 219 220 223 225 227 228 229 231 233 235
315 300 286 270 245 233 225 221 217 216 216 217 217 217 217 217 218 219 220 220 219 218 219 220 220 220 221 221 221 222 224 225 227 229 230 231 232 234
321 310 294 269 243 229 220 215 213 214 214 214 215 215 215 215 215 216 217 218 218 217 216 216 218 219 219 219 219 221 223 224 225 226 228 229 231 234
325 315 302 278 246 228 219 214 211 212 212 213 213 212 211 212 212 213 214 214 215 216 216 216 216 218 219 219 218 219 220 220 222 225 226 228 230 232
341 329 313 285 252 227 218 212 209 209 211 212 212 210 210 211 211 211 211 211 211 212 214 215 216 217 218 218 219 219 220 221 222 223 225 226 229 231
351 343 323 295 258 232 218 210 207 207 206 208 209 208 208 208 209 210 211 211 210 210 211 211 213 215 217 217 218 220 221 220 221 223 226 228 228 230
Height
5725 5727 5729 5732 5734 5738 5742 5746 5751 5755 5760 5765 5769 5775 5780 5785 5791 5797 5803 5808 5814 5819 5825 5831 5836 5841 5846 5850 5854 5858 5862 5865 5868 5871 5873 5875 5877 5879
5712 5715 5717 5719 5722 5726 5730 5734 5739 5744 5750 5755 5759 5765 5770 5777 5783 5789 5794 5800 5806 5812 5818 5823 5829 5834 5839 5844 5848 5852 5856 5860 5863 5866 5869 5871 5873 5875
5699 5701 5704 5706 5709 5713 5717 5722 5727 5732 5739 5744 5749 5755 5761 5767 5773 5779 5786 5792 5798 5804 5810 5816 5822 5827 5832 5837 5842 5847 5851 5855 5858 5861 5864 5867 5869 5871
5685 5687 5689 5692 5696 5699 5704 5708 5714 5720 5727 5733 5738 5744 5751 5757 5764 5770 5777 5783 5789 5796 5802 5808 5814 5820 5825 5831 5836 5841 5845 5849 5853 5856 5860 5862 5864 5866
5670 5672 5674 5677 5681 5685 5690 5695 5701 5707 5714 5721 5727 5734 5740 5747 5753 5760 5767 5774 5780 5787 5793 5800 5806 5812 5818 5824 5829 5834 5839 5844 5848 5851 5855 5858 5860 5862
5656 5657 5659 5662 5666 5670 5675 5681 5687 5694 5701 5708 5715 5722 5729 5736 5743 5750 5757 5764 5771 5778 5784 5791 5798 5804 5811 5817 5823 5828 5833 5838 5842 5846 5849 5853 5855 5857
5641 5642 5644 5646 5650 5655 5660 5667 5673 5680 5687 5695 5703 5711 5718 5725 5732 5739 5746 5753 5761 5768 5775 5782 5789 5796 5803 5809 5815 5821 5826 5831 5836 5840 5844 5847 5850 5852
5627 5628 5629 5632 5635 5640 5645 5652 5658 5666 5674 5682 5690 5698 5706 5714 5721 5728 5736 5743 5751 5759 5766 5773 5780 5787 5795 5801 5808 5814 5820 5825 5830 5834 5838 5841 5844 5847
5614 5614 5616 5618 5621 5626 5631 5637 5644 5651 5660 5668 5677 5685 5694 5702 5710 5718 5726 5733 5741 5749 5756 5763 5771 5779 5786 5793 5799 5806 5812 5818 5823 5827 5832 5835 5839 5842
5602 5601 5602 5604 5607 5611 5616 5623 5629 5637 5646 5655 5664 5672 5680 5688 5698 5706 5714 5722 5730 5737 5745 5753 5761 5769 5777 5784 5791 5798 5804 5810 5816 5821 5825 5829 5833 5836
5590 5590 5590 5591 5594 5598 5603 5609 5615 5623 5630 5639 5648 5657 5667 5676 5685 5694 5702 5710 5718 5726 5735 5743 5751 5759 5767 5775 5782 5789 5796 5802 5808 5813 5818 5822 5826 5829
5580 5579 5579 5579 5581 5584 5589 5595 5602 5609 5617 5625 5635 5644 5654 5663 5672 5682 5690 5699 5707 5716 5724 5733 5741 5749 5757 5765 5773 5780 5787 5793 5800 5805 5810 5815 5819 5822
5569 5568 5567 5567 5568 5571 5576 5582 5589 5595 5603 5612 5621 5631 5641 5650 5660 5669 5678 5688 5696 5705 5714 5723 5731 5739 5748 5756 5763 5771 5778 5785 5791 5797 5802 5807 5812 5815
5559 5558 5556 5556 5557 5560 5565 5570 5576 5583 5591 5600 5609 5619 5629 5638 5647 5656 5666 5675 5685 5694 5703 5711 5721 5729 5738 5746 5754 5762 5769 5776 5783 5789 5794 5799 5804 5807
5550 5548 5547 5547 5548 5551 5555 5560 5566 5573 5581 5589 5598 5607 5617 5626 5635 5644 5654 5664 5674 5683 5692 5701 5710 5718 5727 5736 5744 5752 5760 5767 5774 5780 5785 5791 5795 5800
5543 5541 5539 5539 5540 5543 5546 5551 5557 5564 5572 5580 5588 5596 5605 5614 5624 5633 5643 5653 5663 5673 5682 5691 5700 5708 5717 5726 5735 5743 5751 5758 5765 5771 5777 5782 5787 5792
5536 5535 5533 5533 5535 5537 5540 5544 5549 5556 5563 5571 5579 5587 5596 5605 5614 5623 5632 5642 5653 5662 5672 5681 5689 5698 5708 5716 5724 5733 5741 5749 5756 5762 5768 5774 5779 5783
5532 5530 5529 5529 5530 5532 5535 5539 5543 5549 5556 5563 5571 5579 5588 5596 5604 5613 5622 5632 5642 5652 5661 5670 5680 5689 5698 5707 5716 5724 5732 5739 5746 5753 5759 5765 5770 5775
5530 5528 5527 5526 5527 5528 5531 5534 5539 5545 5551 5557 5564 5572 5580 5588 5596 5605 5613 5623 5632 5642 5651 5661 5670 5680 5689 5698 5707 5715 5722 5730 5737 5744 5750 5756 5761 5766
5527 5525 5524 5524 5524 5526 5528 5531 5536 5541 5546 5552 5558 5565 5573 5581 5589 5597 5605 5614 5623 5633 5642 5652 5661 5671 5680 5689 5697 5705 5712 5720 5728 5734 5740 5746 5752 5757
5526 5524 5523 5523 5523 5524 5526 5529 5533 5537 5542 5547 5553 5560 5567 5574 5582 5590 5598 5606 5615 5625 5634 5643 5651 5660 5669 5678 5687 5695 5703 5711 5718 5725 5731 5737 5743 5748
5525 5523 5522 5522 5522 5523 5525 5527 5530 5534 5539 5543 5549 5555 5562 5569 5576 5583 5591 5599 5608 5617 5625 5633 5642 5651 5660 5669 5678 5686 5694 5701 5708 5715 5722 5729 5734 5739
5525 5523 5522 5521 5521 5522 5523 5525 5528 5532 5536 5540 5545 5551 5557 5564 5571 5578 5585 5593 5601 5609 5617 5626 5634 5643 5651 5660 5668 5677 5685 5692 5699 5706 5713 5719 5725 5730